Regional Weather Roundup
Issued by NWS

Home | Current Version | Previous Version | Text Only | Print | Product List | Glossary Off
Versions: 1 2 3 4 5 6 7 8 9 10 11 12 13 14 15 16 17 18 19 20 21 22 23 24 25 26 27 28 29 30 31 32 33 34 35 36 37 38 39 40 41 42 43 44 45 46 47 48 49 50

000
ASUS45 KPSR 310200
RWRAZ

ARIZONA HOURLY REGIONAL WEATHER ROUNDUP
NATIONAL WEATHER SERVICE PHOENIX AZ
700 PM MST SUN AUG 30 2015

NOTE: FAIR INDICATES FEW OR NO CLOUDS BELOW 12,000 FEET WITH NO
SIGNIFICANT WEATHER AND/OR OBSTRUCTIONS TO VISIBILITY.

AZZ001>003-036-310300-
NORTHWEST ARIZONA

CITY           SKY/WX    TMP DP  RH WIND       PRES   REMARKS
KINGMAN        CLEAR     91  43  18 S15       29.89F
$$

AZZ004>008-015-016-018-310300-
NORTH CENTRAL ARIZONA

CITY           SKY/WX    TMP DP  RH WIND       PRES   REMARKS
GRAND CANYON   CLOUDY    61  56  83 E7        30.20F
WILLIAMS       MOCLDY    70  57  64 S6        30.23F
PRESCOTT       PTCLDY    76  59  55 SW6       30.05S
FLAGSTAFF      NOT AVBL
PAYSON         PTCLDY    82  52  34 CALM      30.09R
PAGE           CLOUDY    77  57  50 CALM      30.04R
$$

AZZ009>014-017-310300-
NORTHEAST ARIZONA

CITY           SKY/WX    TMP DP  RH WIND       PRES   REMARKS
WINSLOW        NOT AVBL
SAINT JOHNS    CLOUDY    72  53  51 CALM      30.16R
WINDOW ROCK    CLOUDY    67  51  56 NW5       30.26S
SHOW LOW       MOCLDY    64  54  68 CALM      30.23R
$$

AZZ023-310300-
GREATER PHOENIX AREA

CITY           SKY/WX    TMP DP  RH WIND       PRES   REMARKS
PHOENIX        MOCLDY    96  64  34 SW25G31   29.72R THUNDER
GLENDALE       MOCLDY   106  55  18 S8        29.72S HX 105
LUKE AFB       CLEAR    103  57  21 SW6       29.69S HX 103
DEER VALLEY    CLEAR    101  57  23 S8        29.73S HX 100
SCOTTSDALE     CLEAR    101  56  22 S5        29.76R HX 100
MESA-GATEWAY   MOCLDY   100  61  27 SW5       29.76S HX 101
CHANDLER       MOCLDY   102  59  24 SE8       29.73S HX 102
$$

AZZ027-028-310300-
SOUTHWEST MARICOPA COUNTY AND PINAL COUNTY

CITY           SKY/WX    TMP DP  RH WIND       PRES   REMARKS
CASA GRANDE    MOCLDY   N/A N/A N/A S15       29.76R
GILA BEND      FAIR     105  56  19 W14       29.69R HX 104
$$

AZZ503-504-507>509-310300-
SOUTHEAST ARIZONA

CITY           SKY/WX    TMP DP  RH WIND       PRES   REMARKS
TUCSON         CLOUDY    87  59  38 S13       29.93S
DAVIS-MONTHAN  CLOUDY    86  60  41 S8        29.91F
RYAN FIELD     CLEAR     91  63  38 SW3       29.89F
SIERRA VISTA   CLOUDY    76  58  53 S8        30.10F
SAFFORD        CLOUDY    90  54  29 N9        29.92R
$$

AZZ020-021-025-026-031-310300-
SOUTHWEST ARIZONA

CITY           SKY/WX    TMP DP  RH WIND       PRES   REMARKS
YUMA           PTCLDY   106  48  14 W7        29.65S HX 102
$$

CAZ031-033-041-043-047-048-061-310300-
SOUTHERN CALIFORNIA

CITY           SKY/WX    TMP DP  RH WIND       PRES   REMARKS
DOWNTOWN L.A.  CLEAR     77  59  53 VRB3      29.81F
L.A. AIRPORT   PTCLDY    74  62  66 SW10      29.82F
SAN DIEGO      MOCLDY    74  64  71 W7        29.86F
BURBANK        CLEAR     79  61  53 S10       29.82F
ONTARIO        PTCLDY    83  60  45 W14       29.82S
RIVERSIDE      CLEAR     84  60  44 W8        29.81S
PALM SPRINGS   MOCLDY   101  53  20 NW18      29.67F
EL CENTRO NAS  PTCLDY   101  44  14 W24       29.66S
IMPERIAL       PTCLDY    99  48  17 W14       29.63S
BLYTHE         CLEAR    106  45  12 SW13      29.64F HX 101
$$

NVZ020-UTZ003-310300-
SOUTHERN NEVADA-UTAH

CITY           SKY/WX    TMP DP  RH WIND       PRES   REMARKS
LAS VEGAS      NOT AVBL
SALT LAKE CITY MOCLDY    82  45  27 N3        29.91S
$$

NMZ009-TXZ055-310300-
NEW MEXICO-WEST TEXAS

CITY           SKY/WX    TMP DP  RH WIND       PRES   REMARKS
ALBUQUERQUE    PTCLDY    86  42  21 S8        30.07R
EL PASO        PTCLDY    87  44  22 S8        30.00S
$$


........................KEY........................
SKY/WX - SKY CONDITION/WEATHER
TMP    - TEMPERATURE IN FAHRENHEIT
DP     - DEW POINT IN FAHRENHEIT
RH     - RELATIVE HUMIDITY IN PERCENT
WIND   - DIRECTION AND SPEED IN MILES PER HOUR (MPH)
VRB    - VARIABLE WIND DIRECTION
PRES   - MEAN SEA LEVEL PRESSURE IN INCHES OF MERCURY
         F - FALLING PRESSURE   R - RISING PRESSURE
         S - STEADY PRESSURE
VSB    - VISIBILITY IN MILES
HX     - HEAT INDEX IN FAHRENHEIT
WCI    - WIND CHILL INDEX IN FAHRENHEIT
TC     - TEMPERATURE IN CELSIUS WHICH IS ALSO KNOWN AS
         TEMPERATURE IN CENTIGRADE
AFB    - AIR FORCE BASE
         LUKE AFB IS LUKE AIR FORCE BASE
         DAVIS-MONTHAN IS DAVIS-MONTHAN AIR FORCE BASE
NAS    - NAVAL AIR STATION
         EL CENTRO NAS IS EL CENTRO NAVAL AIR STATION
N/A    - NOT AVAILABLE




USA.gov is the U.S. government's official web portal to all federal, state and local government web resources and services.